ENVISAT

Last updated on Thu Oct 30 2025 00:02:15 GMT+0000 (Coordinated Universal Time)

1 27386U 02009A 25302.48377772 .00000228 00000+0 87785-4 0 9994 2 27386 98.3523 254.3634 0001344 85.2837 28.9560 14.38974295240301
UTC large
Height (km)
Speed (km/s)
/
Latitude / Longitude
Inclination (degrees)
Orbital Period (minutes)
Azimuth
Elevation
Range (km)
Doppler Factor

Next 0 passes for location: London (51.5072 / 0.1276)

Sorry there are no passes over London.